weather.gov     
National Weather Service

Terminal Aerodrome Forecast
NWS Homepage
This page is being discontinued on March 12, 2014.
The same data is available at this site. Please update your bookmarks.
Thank you, and we apologize for the inconvenience.
Please send an email to SR-SRH.Webmaster@noaa.gov with any concerns.


Current Version
Previous Version:    01  02  03  04  05  06  07  08  09  10  11  12  13  14  15  16  17  18  19  20  21  22  23  
[Printable]
530
FTUS44 KLZK 251100
TAFBPK
TAF
KBPK 251121Z 2512/2612 27012G20KT P6SM VCSH OVC050
     FM251500 30012G22KT P6SM BKN030 PROB30 2521/2603 5SM -SHRA
     FM260300 32010KT P6SM SCT030 BKN060
     FM260900 VRB06KT P6SM SCT060 SCT250=


U.S. Dept. of Commerce
NOAA National Weather Service
1325 East West Highway
Silver Spring, MD 20910
E-mail: w-nws.webmaster@noaa.gov
Page last modified: May 16, 2007
NATIONAL WEATHER SERVICE: for Safety, for Work, for Fun - FOR LIFE